Regional Weather Roundup
Issued by NWS

Home | Current Version | Previous Version | Graphics & Text | Print | Product List | Glossary On
Versions: 1 2 3 4 5 6 7 8 9 10 11 12 13 14 15 16 17 18 19 20 21 22 23 24 25 26 27 28 29 30 31 32 33 34 35 36 37 38 39 40 41 42 43 44 45 46 47 48 49 50
000
ASUS43 KDMX 200906
RWRIA

WEATHER ROUNDUP FOR IOWA
NATIONAL WEATHER SERVICE DES MOINES IA
300 AM CST MON FEB 20 2017

NOTE: "FAIR" INDICATES FEW OR NO CLOUDS BELOW 12,000 FEET WITH NO
SIGNIFICANT WEATHER AND/OR OBSTRUCTIONS TO VISIBILITY.

* - THESE STATIONS ARE NOT NWS STATIONS...THUS NOT UNDER NWS
QUALITY CONTROL.  THEY ALSO DO NOT REPORT WEATHER SUCH
AS PRECIPITATION OR FOG.

IAZ001>003-012>014-020>022-031>034-043>046-201000-
   NORTHWEST IOWA

CITY           SKY/WX    TMP DP  RH WIND       PRES   REMARKS
CARROLL *      CLOUDY    48  48 100 SE8       29.82S
CHEROKEE *     CLOUDY    53  51  95 S7        29.78S
DENISON *      MOCLDY    55  52  88 S13G20    29.77S
LE MARS *      MOCLDY    54  52  94 SE8       29.75F
SHELDON *      CLOUDY    52  52 100 SE16      29.74F
SIOUX CITY     CLOUDY    55  52  89 SE12      29.74S
SPENCER        CLOUDY    50  47  89 SE10      29.77F
STORM LAKE *   CLOUDY    50  48  93 SE12      29.80S
$$

IAZ055>058-069>071-079>083-090>094-201000-
   SOUTHWEST IOWA

CITY           SKY/WX    TMP DP  RH WIND       PRES   REMARKS
ATLANTIC *     CLOUDY    57  52  82 S6        29.81F
CLARINDA *     CLOUDY    59  54  82 S9          N/A
COUNCIL BLFS *   N/A     55  55 100 SE12      29.78F
CRESTON *      MOCLDY    55  50  82 S13       29.87F
HARLAN  *      CLOUDY    55  55 100 S9        29.83F
LAMONI         CLOUDY    57  51  80 SE10      29.87F
RED OAK *      CLOUDY    59  54  82 S13       29.81F
SHENANDOAH *   CLOUDY    59  54  82 SE14      29.80F
$$

IAZ047>049-059>061-072>074-084-201000-
   CENTRAL IOWA

CITY           SKY/WX    TMP DP  RH WIND       PRES   REMARKS
AMES           CLOUDY    51  47  86 SE9       29.88S
ANKENY *       CLOUDY    57  48  72 SE8       29.88S
BOONE *        MOCLDY    48  48 100 SE12      29.85F
CHARITON *     PTCLDY    57  52  82 S14       29.89R
DES MOINES     CLOUDY    59  48  67 SE8       29.88S
GRINNELL*      MOCLDY    51  46  84 E7        29.92F
KNOXVILLE *    CLOUDY    57  48  72 SE10      29.88F
MARSHALLTOWN   MOCLDY    51  47  86 SE12      29.90F
NEWTON *       CLOUDY    54  48  82 SE12      29.89F
PELLA *        CLOUDY    54  47  77 SE8       29.92S
PERRY *          N/A     50  46  84 SE10      29.84F
$$

IAZ004>006-015-016-023>025-035-036-201000-
   NORTH CENTRAL IOWA

CITY           SKY/WX    TMP DP  RH WIND       PRES   REMARKS
ALGONA *       CLOUDY    52  48  87 SE20      29.82F
CLARION *        N/A     50  48  93 SE16      29.87S
ESTHERVILLE    CLOUDY    50  47  89 S15       29.79F
FORT DODGE *   CLOUDY    52  45  76 SE8       29.85F
MASON CITY     CLOUDY    47  43  86 SE13      29.90S
FOREST CITY *    N/A     46  43  87 SE10      29.87S
IOWA FALLS *     N/A     49  45  87 SE12      29.91R
$$

IAZ007>011-017>019-026>030-037>042-050>054-066-201000-
   NORTHEAST IOWA

CITY           SKY/WX    TMP DP  RH WIND       PRES   REMARKS
CEDAR RAPIDS   CLOUDY    52  49  89 SE9       29.95S
CHARLES CITY * CLOUDY    48  48 100 SE13      29.91F
CLINTON *      CLOUDY    46  45  96 E10       30.02F
DECORAH *      CLOUDY    48  43  81 SE10G18   29.93F
DUBUQUE        CLOUDY    49  45  86 SE14      30.00F
MONTICELLO *   CLOUDY    52  46  82 SE9G15    29.98S
OELWEIN *      CLOUDY    48  46  93 SE13      29.95S
WATERLOO       CLOUDY    52  45  77 SE14      29.92F
$$

IAZ064-065-067-068-078-201000-
   EAST CENTRAL IOWA

CITY           SKY/WX    TMP DP  RH WIND       PRES   REMARKS
DAVENPORT      PTCLDY    51  47  86 SE10      30.02S
IOWA CITY      MOCLDY    50  46  86 SE6       29.98S
MUSCATINE *    CLOUDY    52  48  87 SE8       29.99F
QUAD CITIES    CLOUDY    50  45  83 SE5       30.01S HAZE
$$

IAZ062-063-075>077-085>089-095>099-201000-
   SOUTHEAST IOWA

CITY           SKY/WX    TMP DP  RH WIND       PRES   REMARKS
BURLINGTON     PTCLDY    55  51  86 SE12      29.98F
FAIRFIELD *    PTCLDY    55  48  76 SE12      29.94F
KEOKUK *       PTCLDY    54  50  87 SE7       29.98S
OTTUMWA        MOCLDY    58  52  80 S14       29.93S
WASHINGTON *   PTCLDY    52  50  93 SE10      29.97F
$$

ABBREVIATIONS USED IN REMARKS
   TC - TEMPERATURES IN CELSIUS
  WCI - WIND CHILL INDEX
   HX - HEAT INDEX
  VSB - VISIBILITY
$$




USA.gov is the U.S. government's official web portal to all federal, state and local government web resources and services.